Hourly Weather Denpasar

Today, 1 October, Thursday

Time Temperature Precipitation Wind Pressure Humidity
00:00 +26°C° 0.1 mm 3 mps 754 mmHg 96%
01:00 +26°C° 0.1 mm 3 mps 754 mmHg 96%
02:00 +26°C° 0 mm 3 mps 753 mmHg 96%
03:00 +26°C° 0.1 mm 3 mps 753 mmHg 96%
04:00 +26°C° 0.1 mm 3 mps 754 mmHg 96%
05:00 +26°C° 0.1 mm 3 mps 754 mmHg 96%
06:00 +27°C° 0.1 mm 3 mps 754 mmHg 93%
07:00 +28°C° 0.1 mm 3 mps 754 mmHg 89%
08:00 +29°C° 0 mm 3 mps 755 mmHg 85%
09:00 +30°C° 0 mm 3 mps 755 mmHg 77%
10:00 +33°C° 0 mm 4 mps 755 mmHg 69%
11:00 +34°C° 0 mm 4 mps 754 mmHg 60%
12:00 +34°C° 0 mm 4 mps 754 mmHg 61%
13:00 +34°C° 0 mm 4 mps 753 mmHg 62%
14:00 +33°C° 0 mm 4 mps 752 mmHg 70%
15:00 +32°C° 0.2 mm 4 mps 752 mmHg 72%
16:00 +30°C° 0.2 mm 3 mps 752 mmHg 75%
17:00 +30°C° 0.2 mm 3 mps 752 mmHg 78%
18:00 +29°C° 0 mm 3 mps 753 mmHg 82%
19:00 +28°C° 0 mm 3 mps 753 mmHg 87%
20:00 +27°C° 0 mm 3 mps 754 mmHg 92%
21:00 +27°C° 0 mm 3 mps 754 mmHg 92%
22:00 +26°C° 0 mm 3 mps 755 mmHg 92%
23:00 +26°C° 0 mm 3 mps 755 mmHg 93%

Tomorrow, 2 October, Friday

Time Temperature Precipitation Wind Pressure Humidity
00:00 +26°C° 0 mm 3 mps 754 mmHg 93%
01:00 +26°C° 0 mm 3 mps 754 mmHg 94%
02:00 +26°C° 0 mm 3 mps 753 mmHg 95%
03:00 +26°C° 0 mm 3 mps 753 mmHg 94%
04:00 +26°C° 0 mm 3 mps 753 mmHg 94%
05:00 +26°C° 0 mm 3 mps 753 mmHg 93%
06:00 +27°C° 0 mm 3 mps 754 mmHg 89%
07:00 +28°C° 0 mm 3 mps 754 mmHg 86%
08:00 +29°C° 0 mm 3 mps 754 mmHg 82%
09:00 +30°C° 0 mm 4 mps 754 mmHg 75%
10:00 +33°C° 0 mm 4 mps 754 mmHg 68%
11:00 +34°C° 0 mm 4 mps 755 mmHg 61%
12:00 +34°C° 0 mm 4 mps 754 mmHg 62%
13:00 +34°C° 0 mm 5 mps 753 mmHg 63%
14:00 +34°C° 0 mm 5 mps 752 mmHg 64%
15:00 +33°C° 0 mm 5 mps 752 mmHg 69%
16:00 +32°C° 0 mm 5 mps 752 mmHg 74%
17:00 +30°C° 0 mm 4 mps 752 mmHg 79%
18:00 +29°C° 0 mm 4 mps 753 mmHg 84%
19:00 +28°C° 0 mm 4 mps 753 mmHg 89%
20:00 +27°C° 0 mm 3 mps 754 mmHg 94%
21:00 +27°C° 0.1 mm 3 mps 754 mmHg 95%
22:00 +27°C° 0.1 mm 3 mps 755 mmHg 95%
23:00 +27°C° 0.1 mm 3 mps 755 mmHg 96%

Day after tomorrow, 3 October, Saturday

Time Temperature Precipitation Wind Pressure Humidity
00:00 +27°C° 0.3 mm 3 mps 755 mmHg 95%
01:00 +27°C° 0.3 mm 3 mps 755 mmHg 95%
02:00 +27°C° 0.3 mm 3 mps 754 mmHg 94%
03:00 +26°C° 0.6 mm 3 mps 754 mmHg 95%
04:00 +26°C° 0.6 mm 3 mps 754 mmHg 95%
05:00 +26°C° 0.6 mm 3 mps 754 mmHg 95%
06:00 +27°C° 0.1 mm 3 mps 755 mmHg 91%
07:00 +28°C° 0.1 mm 3 mps 755 mmHg 88%
08:00 +29°C° 0.1 mm 3 mps 756 mmHg 84%
09:00 +30°C° 0 mm 3 mps 756 mmHg 78%
10:00 +31°C° 0 mm 3 mps 756 mmHg 72%
11:00 +33°C° 0 mm 4 mps 756 mmHg 67%
12:00 +34°C° 0.1 mm 4 mps 755 mmHg 64%
13:00 +34°C° 0.1 mm 4 mps 754 mmHg 62%
14:00 +34°C° 0.1 mm 4 mps 753 mmHg 60%
15:00 +33°C° 0 mm 4 mps 753 mmHg 65%
16:00 +32°C° 0 mm 4 mps 753 mmHg 70%
17:00 +30°C° 0 mm 4 mps 753 mmHg 76%
18:00 +29°C° 0.1 mm 4 mps 754 mmHg 82%
19:00 +28°C° 0.1 mm 4 mps 754 mmHg 87%
20:00 +27°C° 0.1 mm 4 mps 755 mmHg 93%
21:00 +26°C° 0.3 mm 4 mps 755 mmHg 93%
22:00 +26°C° 0.3 mm 4 mps 755 mmHg 93%
23:00 +26°C° 0.3 mm 4 mps 756 mmHg 94%

4 October, Sunday

Time Temperature Precipitation Wind Pressure Humidity
00:00 +26°C° 0.3 mm 4 mps 755 mmHg 94%
01:00 +26°C° 0.3 mm 4 mps 755 mmHg 94%
02:00 +26°C° 0.3 mm 3 mps 755 mmHg 94%
03:00 +26°C° 0.3 mm 3 mps 755 mmHg 94%
04:00 +26°C° 0.3 mm 3 mps 754 mmHg 94%
05:00 +25°C° 0.3 mm 3 mps 754 mmHg 94%
06:00 +27°C° 0.1 mm 3 mps 755 mmHg 90%
07:00 +28°C° 0.1 mm 3 mps 755 mmHg 86%
08:00 +29°C° 0.1 mm 3 mps 756 mmHg 82%
09:00 +30°C° 0.1 mm 3 mps 756 mmHg 76%
10:00 +32°C° 0.1 mm 4 mps 755 mmHg 70%
11:00 +33°C° 0.1 mm 4 mps 755 mmHg 64%
12:00 +33°C° 0.1 mm 4 mps 755 mmHg 63%
13:00 +33°C° 0.1 mm 4 mps 754 mmHg 63%
14:00 +33°C° 0.1 mm 5 mps 753 mmHg 63%
15:00 +32°C° 0 mm 4 mps 753 mmHg 67%
16:00 +30°C° 0 mm 4 mps 753 mmHg 71%
17:00 +30°C° 0 mm 4 mps 753 mmHg 75%
18:00 +28°C° 0.1 mm 3 mps 754 mmHg 81%
19:00 +27°C° 0.1 mm 3 mps 754 mmHg 87%
20:00 +26°C° 0.1 mm 3 mps 755 mmHg 93%
21:00 +26°C° 0.2 mm 3 mps 755 mmHg 93%
22:00 +26°C° 0.2 mm 3 mps 755 mmHg 93%
23:00 +26°C° 0.2 mm 4 mps 755 mmHg 93%

5 October, Monday

Time Temperature Precipitation Wind Pressure Humidity
00:00 +26°C° 0.3 mm 3 mps 755 mmHg 93%
01:00 +25°C° 0.3 mm 3 mps 754 mmHg 94%
02:00 +25°C° 0.3 mm 3 mps 754 mmHg 94%
03:00 +25°C° 0.2 mm 3 mps 754 mmHg 94%
04:00 +25°C° 0.2 mm 4 mps 754 mmHg 94%
05:00 +25°C° 0.2 mm 4 mps 754 mmHg 95%
06:00 +26°C° 0.1 mm 3 mps 754 mmHg 91%
07:00 +27°C° 0.1 mm 3 mps 755 mmHg 87%
08:00 +28°C° 0.1 mm 3 mps 755 mmHg 83%
09:00 +30°C° 0 mm 3 mps 755 mmHg 73%
10:00 +31°C° 0 mm 3 mps 755 mmHg 64%
11:00 +34°C° 0 mm 3 mps 755 mmHg 54%
12:00 +34°C° 0 mm 4 mps 754 mmHg 54%
13:00 +34°C° 0 mm 4 mps 753 mmHg 53%
14:00 +34°C° 0 mm 4 mps 753 mmHg 53%
15:00 +33°C° 0 mm 4 mps 753 mmHg 59%
16:00 +32°C° 0 mm 4 mps 752 mmHg 64%
17:00 +30°C° 0 mm 4 mps 752 mmHg 70%
18:00 +28°C° 0.1 mm 4 mps 753 mmHg 76%
19:00 +27°C° 0.1 mm 3 mps 753 mmHg 83%
20:00 +26°C° 0.1 mm 3 mps 754 mmHg 89%
21:00 +26°C° 0.2 mm 3 mps 754 mmHg 89%
22:00 +26°C° 0.2 mm 3 mps 754 mmHg 89%
23:00 +26°C° 0.2 mm 3 mps 755 mmHg 89%

6 October, Tuesday

Time Temperature Precipitation Wind Pressure Humidity
00:00 +26°C° 0.1 mm 3 mps 754 mmHg 91%
01:00 +26°C° 0.1 mm 3 mps 754 mmHg 92%
02:00 +25°C° 0.1 mm 3 mps 754 mmHg 94%
03:00 +25°C° 0.2 mm 3 mps 754 mmHg 94%
04:00 +25°C° 0.2 mm 3 mps 753 mmHg 94%
05:00 +25°C° 0.2 mm 3 mps 753 mmHg 94%
06:00 +26°C° 0.1 mm 3 mps 754 mmHg 91%
07:00 +27°C° 0.1 mm 3 mps 754 mmHg 87%
08:00 +28°C° 0.1 mm 3 mps 754 mmHg 84%
09:00 +29°C° 0.1 mm 3 mps 755 mmHg 76%
10:00 +31°C° 0.1 mm 3 mps 755 mmHg 68%
11:00 +33°C° 0.1 mm 3 mps 755 mmHg 60%
12:00 +33°C° 0.1 mm 3 mps 754 mmHg 61%
13:00 +33°C° 0.1 mm 4 mps 753 mmHg 63%
14:00 +33°C° 0.1 mm 5 mps 752 mmHg 64%
15:00 +32°C° 0.1 mm 5 mps 752 mmHg 69%
16:00 +30°C° 0.1 mm 4 mps 752 mmHg 73%
17:00 +29°C° 0.1 mm 4 mps 752 mmHg 78%
18:00 +28°C° 0.1 mm 4 mps 753 mmHg 83%
19:00 +27°C° 0.1 mm 3 mps 754 mmHg 89%
20:00 +26°C° 0.1 mm 3 mps 754 mmHg 95%
21:00 +26°C° 0.2 mm 3 mps 755 mmHg 95%
22:00 +26°C° 0.2 mm 3 mps 755 mmHg 94%
23:00 +26°C° 0.2 mm 3 mps 755 mmHg 94%
Show more